Tracking 19796 objects as of 19-Jul-2019
HD Live streaming from Space Station
objects crossing your sky now

OPS 6630 (2)

Track OPS 6630 (2) now!
10-day predictions
OPS 6630 (2) is classified as:


NORAD ID: 6938
Int'l Code: 1973-088D
Perigee: 1,421.5 km
Apogee: 1,462.8 km
Inclination: 96.9 °
Period: 114.6 minutes
Semi major axis: 7813 km
RCS: 0.3492 m2 (medium)
Launch date: November 10, 1973
Source: United States (US)
Launch site: AIR FORCE WESTERN TEST RANGE (AFWTR)
aabbcc
Your satellite tracking list
Your tracking list is empty




NASA's NSSDC Master Catalog

Two Line Element Set (TLE):
1  6938U 73088D   19199.95012003 -.00000016 +00000-0 +14529-4 0  9994
2  6938 096.9244 183.9253 0026419 355.1728 031.7319 12.57086608095849
Source of the keplerian elements: AFSPC